TimeHST,TemperatureF,Dew PointF,Humidity,Sea Level PressureIn,VisibilityMPH,Wind Direction,Wind SpeedMPH,Gust SpeedMPH,PrecipitationIn,Events,Conditions,WindDirDegrees,DateUTC
12:56 AM,70.0,70.0,100,29.98,10.0,East,4.6,-,N/A,,Clear,90,2012-12-10 10:56:00
1:56 AM,70.0,70.0,100,29.97,10.0,SSE,3.5,-,N/A,,Scattered Clouds,150,2012-12-10 11:56:00
2:56 AM,72.0,69.1,91,29.96,10.0,Calm,Calm,-,N/A,,Clear,0,2012-12-10 12:56:00
3:56 AM,70.0,70.0,100,29.95,10.0,ESE,3.5,-,N/A,,Clear,120,2012-12-10 13:56:00
4:56 AM,70.0,70.0,100,29.95,10.0,East,3.5,-,N/A,,Clear,100,2012-12-10 14:56:00
5:56 AM,71.1,70.0,96,29.96,10.0,Variable,5.8,-,N/A,,Clear,0,2012-12-10 15:56:00
6:56 AM,70.0,68.0,93,29.98,10.0,ENE,3.5,-,N/A,,Clear,70,2012-12-10 16:56:00
7:56 AM,72.0,71.1,97,29.99,10.0,Calm,Calm,-,N/A,,Clear,0,2012-12-10 17:56:00
8:56 AM,77.0,77.0,100,29.99,10.0,NW,3.5,-,N/A,,Clear,310,2012-12-10 18:56:00
9:56 AM,79.0,78.1,97,30.00,10.0,Calm,Calm,-,N/A,,Partly Cloudy,0,2012-12-10 19:56:00
10:56 AM,81.0,79.0,94,29.99,10.0,North,10.4,-,N/A,,Clear,360,2012-12-10 20:56:00
11:56 AM,81.0,77.0,88,29.98,10.0,NW,9.2,-,N/A,,Partly Cloudy,320,2012-12-10 21:56:00
12:56 PM,82.0,73.9,76,29.96,10.0,Variable,3.5,-,N/A,,Partly Cloudy,0,2012-12-10 22:56:00
1:56 PM,82.9,77.0,82,29.95,10.0,North,11.5,-,N/A,,Scattered Clouds,350,2012-12-10 23:56:00
2:56 PM,82.9,70.0,65,29.95,10.0,Variable,5.8,-,N/A,,Scattered Clouds,0,2012-12-11 00:56:00
3:56 PM,84.0,66.0,55,29.95,10.0,North,6.9,-,N/A,,Clear,360,2012-12-11 01:56:00
4:56 PM,80.1,78.1,94,29.97,10.0,Calm,Calm,-,N/A,,Clear,0,2012-12-11 02:56:00
5:56 PM,77.0,69.1,76,29.96,10.0,ESE,3.5,-,N/A,,Clear,120,2012-12-11 03:56:00
6:56 PM,73.9,69.1,85,29.99,10.0,SSE,6.9,-,N/A,,Clear,150,2012-12-11 04:56:00
7:56 PM,72.0,66.0,81,30.01,10.0,ESE,3.5,-,N/A,,Clear,120,2012-12-11 05:56:00
8:56 PM,72.0,68.0,87,30.03,10.0,SSE,4.6,-,N/A,,Clear,150,2012-12-11 06:56:00
9:56 PM,73.0,70.0,90,30.05,10.0,SSE,4.6,-,N/A,,Clear,150,2012-12-11 07:56:00
10:56 PM,70.0,69.1,97,30.05,10.0,East,4.6,-,N/A,,Clear,90,2012-12-11 08:56:00
11:56 PM,68.0,68.0,100,30.04,10.0,Calm,Calm,-,N/A,,Clear,0,2012-12-11 09:56:00